Printer-friendly version

IAU Minor Planet Center

Minor Planet Center

MPEC 2006-E35 : 2006 EW52

The following Minor Planet Electronic Circular may be linked-to from your own Web pages, but must not otherwise be redistributed electronically.


Read MPEC 2006-E34 Read MPEC 2006-E36


M.P.E.C. 2006-E35                                Issued 2006 Mar.  9, 18:11 UT

     The Minor Planet Electronic Circulars contain information on unusual
         minor planets and routine data on comets.  They are published
   on behalf of Commission 20 of the International Astronomical Union by the
          Minor Planet Center, Smithsonian Astrophysical Observatory,
                          Cambridge, MA 02138, U.S.A.

                  Supported in part by the Brinson Foundation
                  Supported in part by the TABASGO Foundation
             Prepared using the Tamkin Foundation Computer Network

                              MPC@CFA.HARVARD.EDU
          URL http://cfa-www.harvard.edu/iau/mpc.html  ISSN 1523-6714

                                   2006 EW52

Observations:
     K06E52W* C2006 03 05.15820 10 36 30.96 +09 28 56.3          21.2 V EE035691
     K06E52W  C2006 03 05.17554 10 36 28.16 +09 28 45.2          21.2 V EE035691
     K06E52W  C2006 03 05.19287 10 36 25.25 +09 28 33.8          20.8 V EE035691
     K06E52W HC2006 03 06.32408 10 33 25.56 +09 16 21.8                 EE035291
     K06E52W  C2006 03 06.32783 10 33 25.10 +09 16 20.3          20.2 V EE035291
     K06E52W HC2006 03 06.33175 10 33 24.26 +09 16 17.6                 EE035291
     K06E52W  C2006 03 06.36926 10 33 17.98 +09 15 51.8          21.2 V EE035G96
     K06E52W  C2006 03 06.37347 10 33 17.31 +09 15 48.8          21.1 V EE035G96
     K06E52W  C2006 03 06.37767 10 33 16.60 +09 15 45.9          21.1 V EE035G96
     K06E52W  C2006 03 06.38183 10 33 15.91 +09 15 43.3          20.9 V EE035G96
     K06E52W  C2006 03 09.19506 10 25 59.77 +08 44 05.8          20.9 V EE035G96
     K06E52W HC2006 03 09.19904 10 25 59.18 +08 44 01.8                 EE035291
     K06E52W  C2006 03 09.20101 10 25 58.72 +08 44 01.0          20.6 V EE035G96
     K06E52W  C2006 03 09.20319 10 25 58.49 +08 44 00.6                 EE035291
     K06E52W  C2006 03 09.20700 10 25 57.82 +08 43 56.5          20.4 V EE035G96
     K06E52W HC2006 03 09.20715 10 25 57.83 +08 43 58.5                 EE035291
     K06E52W  C2006 03 09.21295 10 25 56.92 +08 43 51.7          18.9 V EE035G96

Observer details:
291 LPL/Spacewatch II.  Observers M. Block, T. H. Bressi.  1.8-m f/2.7
    reflector + CCD.
691 Steward Observatory, Kitt Peak.  Observer M. Block.  0.9-m f/3 reflector
    + CCD.
G96 Mt. Lemmon Survey.  Observers R. Hill, R. A. Kowalski.  Measurers
    E. C. Beshore, E. J. Christensen, G. J. Garradd, A. R. Gibbs, A. D. Grauer,
    R. E. Hill, R. A. Kowalski, S. M. Larson, R. H. McNaught.  1.5-m reflector
    + CCD.

Orbital elements:
2006 EW52                                                Earth MOID = 0.1434 AU
Epoch 2006 Mar. 6.0 TT = JDT 2453800.5                  MPC
M 245.05918              (2000.0)            P               Q
n   0.71027065     Peri.  303.83181     +0.30300990     +0.95202193
a   1.2440948      Node   343.64270     -0.81629456     +0.23606139
e   0.0952212      Incl.    8.75917     -0.49178063     +0.19475439
P   1.39           H   22.1           G   0.15           U   8
Residuals in seconds of arc
060305 691  0.4-  0.4+    060306 G96  0.3-  0.1+    060309 G96  1.2-  0.2+
060305 691  0.5+  0.0     060306 G96  0.2+  0.1-    060309 291  0.3+  1.1+
060305 691  0.1-  0.5-    060306 G96  0.0   0.2-    060309 G96  0.1-  0.3-
060306 291  0.1+  0.1-    060306 G96  0.0   0.0     060309 291 (0.0   1.7+)
060306 291 (2.5+  0.9+)   060309 G96  0.0   0.9+    060309 G96  0.9+  1.0-
060306 291  0.2-  0.7+    060309 291  0.5+  0.6-

Ephemeris:
2006 EW52                a,e,i = 1.24, 0.10, 9                   q = 1.1256
Date    TT    R. A. (2000) Decl.     Delta      r     Elong.  Phase     V
2006 03 06    10 34.28   +09 20.1    0.313    1.303   171.5     6.4    20.6
2006 03 16    10 09.55   +07 21.9    0.316    1.290   156.3    18.1    21.1
2006 03 26    09 50.81   +05 12.7    0.332    1.277   142.3    28.5    21.5
2006 04 05    09 40.36   +03 01.6    0.358    1.263   130.5    37.0    21.9
2006 04 15    09 38.03   +00 51.3    0.389    1.248   120.9    43.6    22.2

Gareth V. Williams           (C) Copyright 2006 MPC           M.P.E.C. 2006-E35

Read MPEC 2006-E34 Read MPEC 2006-E36


Our Web policy. Index to the CBAT/MPC/ICQ pages.


Valid HTML 4.01!